| time (UTC) | temp F | wind direction | speed MPH | gust MPH | rain 1hr in | rain 24hr in | rain mn in | humidity % | barometer mb |
| 20260905230003 | 55 | 69 | 2.0 | 11.0 | 0.20 | 0.55 | 0.51 | 98 | 1008.0 |
| 20260905225003 | 56 | 52 | 1.0 | 4.0 | 0.21 | 0.54 | 0.49 | 98 | 1008.0 |
| 20260905224003 | 56 | 91 | 2.0 | 9.0 | 0.19 | 0.51 | 0.45 | 98 | 1008.0 |
| 20260905223214 | 56 | 69 | 2.0 | 8.0 | 0.21 | 0.50 | 0.44 | 98 | 1007.7 |
| 20260905222003 | 56 | 97 | 1.0 | 4.0 | 0.17 | 0.44 | 0.38 | 97 | 1008.0 |
| 20260905221003 | 56 | 104 | 1.0 | 9.0 | 0.13 | 0.39 | 0.33 | 97 | 1008.0 |
| 20260905220003 | 56 | 73 | 1.0 | 8.0 | 0.11 | 0.38 | 0.31 | 97 | 1007.7 |
| 20260905215003 | 56 | 298 | 1.0 | 8.0 | 0.08 | 0.35 | 0.28 | 97 | 1008.0 |
| 20260905214214 | 56 | 81 | 1.0 | 7.0 | 0.06 | 0.33 | 0.26 | 96 | 1007.7 |
| 20260905213003 | 57 | 63 | 2.0 | 9.0 | 0.02 | 0.29 | 0.22 | 95 | 1007.7 |
| 20260905212003 | 57 | 28 | 2.0 | 9.0 | 0.01 | 0.28 | 0.21 | 94 | 1007.7 |
| 20260905211003 | 58 | 55 | 1.0 | 8.0 | 0.00 | 0.27 | 0.20 | 93 | 1007.7 |
| 20260905210003 | 58 | 39 | 2.0 | 13.0 | 0.00 | 0.27 | 0.20 | 90 | 1007.3 |
| 20260905205003 | 58 | 75 | 3.0 | 11.0 | 0.01 | 0.27 | 0.20 | 89 | 1007.3 |
| 20260905204004 | 58 | 50 | 2.0 | 13.0 | 0.01 | 0.27 | 0.20 | 91 | 1007.0 |
| 20260905203003 | 58 | 65 | 2.0 | 8.0 | 0.01 | 0.27 | 0.20 | 93 | 1007.0 |
| 20260905202213 | 57 | 52 | 2.0 | 11.0 | 0.02 | 0.27 | 0.20 | 92 | 1007.3 |
| 20260905201213 | 57 | 71 | 3.0 | 13.0 | 0.02 | 0.27 | 0.20 | 91 | 1007.0 |
| 20260905200004 | 58 | 70 | 2.0 | 13.0 | 0.03 | 0.27 | 0.20 | 92 | 1007.0 |
| 20260905195213 | 58 | 62 | 2.0 | 8.0 | 0.03 | 0.27 | 0.20 | 94 | 1006.6 |
| 20260905194003 | 58 | 40 | 2.0 | 9.0 | 0.02 | 0.26 | 0.19 | 93 | 1007.0 |
| 20260905193003 | 58 | 60 | 3.0 | 14.0 | 0.02 | 0.26 | 0.19 | 92 | 1006.6 |
| 20260905192003 | 59 | 42 | 2.0 | 10.0 | 0.02 | 0.25 | 0.18 | 92 | 1006.6 |
| 20260905191003 | 59 | 63 | 3.0 | 14.0 | 0.02 | 0.25 | 0.18 | 92 | 1007.0 |
| 20260905190003 | 59 | 49 | 2.0 | 16.0 | 0.01 | 0.24 | 0.17 | 91 | 1006.6 |
| 20260905185003 | 59 | 40 | 3.0 | 13.0 | 0.01 | 0.24 | 0.17 | 91 | 1006.6 |
| 20260905184003 | 59 | 71 | 3.0 | 14.0 | 0.01 | 0.24 | 0.17 | 90 | 1006.6 |
| 20260905183003 | 59 | 57 | 2.0 | 10.0 | 0.01 | 0.24 | 0.17 | 91 | 1006.6 |
| 20260905182003 | 59 | 57 | 3.0 | 17.0 | 0.00 | 0.23 | 0.16 | 88 | 1006.6 |
| 20260905181215 | 60 | 73 | 2.0 | 8.0 | 0.00 | 0.23 | 0.16 | 90 | 1006.6 |
| 20260905180003 | 60 | 65 | 2.0 | 7.0 | 0.00 | 0.23 | 0.16 | 89 | 1006.6 |
| 20260905175212 | 61 | 64 | 2.0 | 18.0 | 0.00 | 0.23 | 0.16 | 85 | 1006.6 |
| 20260905174003 | 60 | 48 | 3.0 | 13.0 | 0.01 | 0.23 | 0.16 | 86 | 1006.3 |
| 20260905173004 | 61 | 31 | 3.0 | 14.0 | 0.01 | 0.23 | 0.16 | 85 | 1006.6 |
| 20260905172003 | 62 | 47 | 3.0 | 9.0 | 0.01 | 0.23 | 0.16 | 84 | 1006.3 |
| 20260905171003 | 62 | 75 | 4.0 | 22.0 | 0.01 | 0.23 | 0.16 | 83 | 1006.3 |
| 20260905170003 | 61 | 56 | 4.0 | 14.0 | 0.02 | 0.23 | 0.16 | 86 | 1006.0 |
| 20260905165003 | 59 | 58 | 3.0 | 15.0 | 0.02 | 0.23 | 0.16 | 93 | 1006.0 |
| 20260905164003 | 59 | 59 | 2.0 | 8.0 | 0.01 | 0.22 | 0.15 | 94 | 1006.0 |
| 20260905163003 | 59 | 54 | 2.0 | 9.0 | 0.01 | 0.22 | 0.15 | 94 | 1006.0 |
| 20260905162003 | 59 | 79 | 2.0 | 9.0 | 0.01 | 0.22 | 0.15 | 95 | 1006.0 |
| 20260905161214 | 59 | 41 | 2.0 | 7.0 | 0.01 | 0.22 | 0.15 | 93 | 1006.0 |
| 20260905160004 | 59 | 61 | 3.0 | 13.0 | 0.00 | 0.21 | 0.14 | 91 | 1006.0 |
| 20260905155003 | 60 | 74 | 3.0 | 11.0 | 0.00 | 0.21 | 0.14 | 89 | 1006.0 |
| 20260905154003 | 60 | 68 | 4.0 | 14.0 | 0.00 | 0.21 | 0.14 | 87 | 1006.0 |
| 20260905153003 | 61 | 53 | 2.0 | 13.0 | 0.00 | 0.21 | 0.14 | 86 | 1006.0 |
| 20260905152004 | 60 | 65 | 4.0 | 17.0 | 0.00 | 0.21 | 0.14 | 89 | 1005.6 |
| 20260905151003 | 60 | 67 | 3.0 | 11.0 | 0.00 | 0.21 | 0.14 | 89 | 1005.6 |
| 20260905150003 | 60 | 72 | 3.0 | 11.0 | 0.00 | 0.22 | 0.14 | 89 | 1005.6 |
| 20260905145003 | 59 | 64 | 3.0 | 17.0 | 0.00 | 0.22 | 0.14 | 90 | 1005.6 |
| 20260905144003 | 59 | 60 | 3.0 | 13.0 | 0.00 | 0.22 | 0.14 | 91 | 1005.6 |
| 20260905143003 | 59 | 54 | 2.0 | 11.0 | 0.00 | 0.22 | 0.14 | 93 | 1005.6 |
| 20260905142003 | 59 | 52 | 2.0 | 10.0 | 0.00 | 0.22 | 0.14 | 94 | 1005.3 |
| 20260905141003 | 59 | 87 | 2.0 | 8.0 | 0.00 | 0.22 | 0.14 | 94 | 1005.3 |
| 20260905140213 | 58 | 56 | 2.0 | 10.0 | 0.00 | 0.22 | 0.14 | 94 | 1005.3 |
| 20260905135003 | 58 | 49 | 2.0 | 14.0 | 0.00 | 0.22 | 0.14 | 93 | 1005.3 |
| 20260905134003 | 58 | 80 | 3.0 | 11.0 | 0.00 | 0.23 | 0.14 | 93 | 1005.3 |
| 20260905133003 | 58 | 66 | 4.0 | 9.0 | 0.00 | 0.23 | 0.14 | 92 | 1005.3 |
| 20260905132003 | 58 | 52 | 2.0 | 14.0 | 0.00 | 0.23 | 0.14 | 94 | 1004.9 |
| 20260905131003 | 58 | 65 | 3.0 | 18.0 | 0.01 | 0.23 | 0.14 | 94 | 1004.9 |
| 20260905130003 | 58 | 76 | 2.0 | 9.0 | 0.01 | 0.23 | 0.14 | 95 | 1004.9 |
| 20260905125003 | 58 | 77 | 3.0 | 14.0 | 0.01 | 0.24 | 0.14 | 95 | 1004.6 |
| 20260905124003 | 58 | 74 | 2.0 | 9.0 | 0.01 | 0.24 | 0.14 | 95 | 1004.6 |
| 20260905123003 | 58 | 57 | 2.0 | 10.0 | 0.02 | 0.24 | 0.14 | 96 | 1004.9 |
| 20260905122003 | 58 | 37 | 2.0 | 15.0 | 0.02 | 0.24 | 0.14 | 97 | 1004.6 |
| 20260905121004 | 57 | 63 | 3.0 | 9.0 | 0.01 | 0.23 | 0.13 | 97 | 1004.9 |
| 20260905120004 | 57 | 56 | 2.0 | 10.0 | 0.01 | 0.23 | 0.13 | 96 | 1004.6 |
| 20260905115003 | 57 | 50 | 3.0 | 10.0 | 0.01 | 0.24 | 0.13 | 96 | 1004.6 |
| 20260905114003 | 57 | 46 | 2.0 | 13.0 | 0.01 | 0.24 | 0.13 | 97 | 1004.3 |
| 20260905113214 | 57 | 55 | 2.0 | 9.0 | 0.00 | 0.23 | 0.12 | 97 | 1004.6 |
| 20260905112003 | 57 | 67 | 3.0 | 13.0 | 0.01 | 0.24 | 0.12 | 97 | 1004.3 |
| 20260905111003 | 57 | 60 | 3.0 | 10.0 | 0.01 | 0.24 | 0.12 | 97 | 1004.6 |
| 20260905110003 | 57 | 67 | 2.0 | 7.0 | 0.01 | 0.25 | 0.12 | 97 | 1004.3 |
| 20260905105003 | 57 | 35 | 2.0 | 8.0 | 0.01 | 0.26 | 0.12 | 97 | 1003.9 |
| 20260905104003 | 57 | 96 | 2.0 | 9.0 | 0.01 | 0.27 | 0.12 | 97 | 1004.3 |
| 20260905103003 | 57 | 64 | 2.0 | 8.0 | 0.01 | 0.29 | 0.12 | 97 | 1003.9 |
| 20260905102003 | 57 | 69 | 2.0 | 10.0 | 0.00 | 0.31 | 0.11 | 97 | 1003.9 |
| 20260905101004 | 57 | 75 | 2.0 | 7.0 | 0.00 | 0.32 | 0.11 | 97 | 1003.9 |
| 20260905100213 | 57 | 104 | 2.0 | 6.0 | 0.00 | 0.32 | 0.11 | 97 | 1003.9 |
| 20260905095003 | 57 | 50 | 2.0 | 14.0 | 0.00 | 0.33 | 0.11 | 97 | 1003.9 |
| 20260905094004 | 57 | 62 | 3.0 | 10.0 | 0.01 | 0.34 | 0.11 | 98 | 1003.9 |
| 20260905093003 | 57 | 63 | 2.0 | 11.0 | 0.01 | 0.36 | 0.11 | 98 | 1003.9 |
| 20260905092213 | 57 | 69 | 2.0 | 8.0 | 0.01 | 0.37 | 0.11 | 98 | 1003.6 |
| 20260905091003 | 57 | 27 | 2.0 | 11.0 | 0.01 | 0.37 | 0.11 | 98 | 1003.6 |
| 20260905090003 | 58 | 78 | 2.0 | 10.0 | 0.02 | 0.38 | 0.11 | 98 | 1003.6 |
| 20260905085003 | 58 | 57 | 2.0 | 7.0 | 0.04 | 0.39 | 0.11 | 98 | 1003.6 |
| 20260905084213 | 58 | 64 | 2.0 | 8.0 | 0.05 | 0.39 | 0.11 | 99 | 1003.6 |
| 20260905083213 | 58 | 58 | 2.0 | 9.0 | 0.04 | 0.39 | 0.10 | 99 | 1003.2 |
| 20260905082003 | 58 | 40 | 2.0 | 14.0 | 0.05 | 0.39 | 0.10 | 99 | 1003.2 |
| 20260905081003 | 58 | 83 | 2.0 | 9.0 | 0.06 | 0.40 | 0.10 | 99 | 1003.2 |
| 20260905080004 | 58 | 357 | 2.0 | 6.0 | 0.05 | 0.39 | 0.09 | 99 | 1003.2 |
| 20260905075003 | 58 | 122 | 1.0 | 4.0 | 0.04 | 0.39 | 0.07 | 99 | 1003.2 |
| 20260905074213 | 58 | 119 | 2.0 | 14.0 | 0.03 | 0.40 | 0.06 | 99 | 1002.9 |
| 20260905073212 | 58 | 68 | 2.0 | 8.0 | 0.04 | 0.40 | 0.06 | 98 | 1002.9 |
| 20260905072003 | 58 | 100 | 2.0 | 9.0 | 0.03 | 0.39 | 0.05 | 98 | 1003.2 |
| 20260905071003 | 58 | 119 | 2.0 | 7.0 | 0.02 | 0.38 | 0.04 | 98 | 1003.2 |
| 20260905070214 | 59 | 4 | 2.0 | 7.0 | 0.02 | 0.38 | 0.04 | 98 | 1003.2 |
| 20260905065003 | 59 | 103 | 1.0 | 7.0 | 0.01 | 0.38 | 0.03 | 98 | 1002.9 |
| 20260905064003 | 59 | 73 | 2.0 | 13.0 | 0.00 | 0.38 | 0.03 | 98 | 1002.9 |
| 20260905063003 | 59 | 71 | 2.0 | 10.0 | 0.00 | 0.38 | 0.02 | 98 | 1002.9 |
| 20260905062003 | 59 | 127 | 2.0 | 9.0 | 0.01 | 0.39 | 0.02 | 98 | 1003.2 |
| 20260905061003 | 59 | 92 | 1.0 | 8.0 | 0.01 | 0.40 | 0.02 | 98 | 1002.9 |
| 20260905060003 | 59 | 149 | 2.0 | 6.0 | 0.01 | 0.40 | 0.02 | 97 | 1002.9 |
| 20260905055214 | 59 | 39 | 2.0 | 8.0 | 0.01 | 0.41 | 0.02 | 97 | 1002.9 |
| 20260905054003 | 60 | 11 | 2.0 | 8.0 | 0.01 | 0.41 | 0.02 | 97 | 1003.2 |
| 20260905053003 | 60 | 123 | 2.0 | 9.0 | 0.01 | 0.41 | 0.02 | 97 | 1002.9 |
| 20260905052003 | 60 | 99 | 1.0 | 4.0 | 0.00 | 0.40 | 0.01 | 97 | 1002.9 |
| 20260905051003 | 60 | 98 | 2.0 | 9.0 | 0.00 | 0.41 | 0.01 | 97 | 1002.9 |
| 20260905050003 | 60 | 48 | 2.0 | 6.0 | 0.00 | 0.43 | 0.01 | 97 | 1002.6 |
| 20260905045003 | 60 | 64 | 1.0 | 8.0 | 0.00 | 0.45 | 0.01 | 97 | 1002.9 |
| 20260905044003 | 60 | 42 | 2.0 | 7.0 | 0.01 | 0.47 | 0.01 | 97 | 1003.2 |
| 20260905043003 | 60 | 61 | 2.0 | 8.0 | 0.01 | 0.50 | 0.01 | 97 | 1003.2 |
| 20260905042213 | 60 | 56 | 1.0 | 8.0 | 0.01 | 0.54 | 0.01 | 97 | 1003.2 |
| 20260905041003 | 60 | 90 | 2.0 | 6.0 | 0.01 | 0.59 | 0.01 | 97 | 1002.6 |
| 20260905040003 | 61 | 8 | 1.0 | 7.0 | 0.01 | 0.64 | 0.01 | 97 | 1002.9 |
| 20260905035003 | 61 | 58 | 2.0 | 10.0 | 0.01 | 0.70 | 0.01 | 97 | 1002.9 |
| 20260905034213 | 61 | 111 | 1.0 | 7.0 | 0.00 | 0.74 | 0.00 | 97 | 1002.9 |
| 20260905033003 | 61 | 68 | 2.0 | 9.0 | 0.00 | 0.82 | 0.00 | 96 | 1002.9 |
| 20260905032003 | 61 | 49 | 2.0 | 8.0 | 0.00 | 0.90 | 0.00 | 96 | 1002.9 |
| 20260905031003 | 61 | 41 | 1.0 | 11.0 | 0.00 | 0.93 | 0.00 | 96 | 1002.9 |
| 20260905030213 | 61 | 68 | 2.0 | 9.0 | 0.00 | 0.95 | 0.00 | 95 | 1002.6 |
| 20260905025003 | 61 | 54 | 2.0 | 10.0 | 0.00 | 0.97 | 0.96 | 96 | 1002.9 |
| 20260905024003 | 61 | 66 | 3.0 | 14.0 | 0.00 | 0.98 | 0.96 | 96 | 1002.6 |
| 20260905023003 | 61 | 40 | 2.0 | 9.0 | 0.00 | 0.99 | 0.96 | 97 | 1002.9 |
| 20260905022003 | 61 | 94 | 2.0 | 11.0 | 0.00 | 1.00 | 0.96 | 98 | 1002.6 |
| 20260905021003 | 61 | 320 | 2.0 | 7.0 | 0.00 | 1.00 | 0.96 | 98 | 1002.6 |
| 20260905020003 | 61 | 116 | 1.0 | 4.0 | 0.00 | 1.01 | 0.96 | 98 | 1002.6 |
| 20260905015212 | 61 | 281 | 1.0 | 4.0 | 0.01 | 1.01 | 0.96 | 98 | 1002.6 |
| 20260905014214 | 61 | 24 | 1.0 | 4.0 | 0.01 | 1.01 | 0.96 | 98 | 1002.9 |
| 20260905013003 | 61 | 88 | 2.0 | 8.0 | 0.03 | 1.01 | 0.96 | 98 | 1002.9 |
| 20260905012003 | 61 | 325 | 1.0 | 4.0 | 0.03 | 1.01 | 0.96 | 99 | 1002.9 |
| 20260905011003 | 61 | 292 | 1.0 | 4.0 | 0.03 | 1.01 | 0.96 | 98 | 1002.9 |
| 20260905010004 | 61 | 3 | 1.0 | 4.0 | 0.03 | 1.01 | 0.96 | 98 | 1003.2 |
| 20260905005003 | 61 | 256 | 1.0 | 7.0 | 0.02 | 1.00 | 0.95 | 98 | 1003.2 |
| 20260905004004 | 62 | 101 | 1.0 | 2.0 | 0.01 | 0.99 | 0.95 | 98 | 1003.2 |
| 20260905003003 | 62 | 242 | 1.0 | 3.0 | 0.00 | 0.98 | 0.93 | 98 | 1003.2 |
| 20260905002003 | 61 | 307 | 0.0 | 2.0 | 0.00 | 0.98 | 0.93 | 98 | 1003.2 |
| 20260905001003 | 62 | 300 | 1.0 | 6.0 | 0.00 | 0.98 | 0.93 | 97 | 1002.9 |
| 20260905000003 | 62 | 63 | 2.0 | 7.0 | 0.01 | 0.98 | 0.93 | 97 | 1003.2 |
| 20260904235003 | 62 | 83 | 2.0 | 10.0 | 0.02 | 0.98 | 0.93 | 97 | 1002.9 |
| 20260904234003 | 62 | 60 | 1.0 | 10.0 | 0.03 | 0.98 | 0.93 | 97 | 1003.2 |
| 20260904233003 | 62 | 70 | 3.0 | 13.0 | 0.03 | 0.98 | 0.93 | 97 | 1002.9 |
| 20260904232003 | 62 | 58 | 3.0 | 13.0 | 0.03 | 0.98 | 0.93 | 98 | 1002.9 |
| 20260904231003 | 62 | 83 | 2.0 | 11.0 | 0.03 | 0.98 | 0.93 | 98 | 1002.9 |